TimePST,TemperatureF,Dew PointF,Humidity,Sea Level PressureIn,VisibilityMPH,Wind Direction,Wind SpeedMPH,Gust SpeedMPH,PrecipitationIn,Events,Conditions,WindDirDegrees,DateUTC
12:56 AM,50.9,30.0,45,30.19,10.0,Calm,Calm,-,N/A,,Clear,0,2013-02-03 08:56:00
1:56 AM,50.0,32.0,50,30.17,10.0,Calm,Calm,-,N/A,,Partly Cloudy,0,2013-02-03 09:56:00
3:56 AM,50.9,30.0,45,30.14,10.0,Calm,Calm,-,N/A,,Partly Cloudy,0,2013-02-03 11:56:00
4:56 AM,52.0,29.1,41,30.14,10.0,Calm,Calm,-,N/A,,Clear,0,2013-02-03 12:56:00
5:56 AM,52.0,29.1,41,30.16,10.0,SSW,8.1,-,N/A,,Partly Cloudy,200,2013-02-03 13:56:00
6:56 AM,52.0,29.1,41,30.16,10.0,Calm,Calm,-,N/A,,Mostly Cloudy,0,2013-02-03 14:56:00
7:56 AM,52.9,30.0,42,30.17,10.0,Calm,Calm,-,N/A,,Overcast,0,2013-02-03 15:56:00
8:56 AM,54.9,32.0,42,30.17,10.0,Calm,Calm,-,N/A,,Mostly Cloudy,0,2013-02-03 16:56:00
9:56 AM,57.9,29.1,33,30.16,10.0,Calm,Calm,-,N/A,,Mostly Cloudy,0,2013-02-03 17:56:00
10:56 AM,59.9,32.9,36,30.15,10.0,NE,6.9,-,N/A,,Mostly Cloudy,40,2013-02-03 18:56:00
11:56 AM,63.0,32.0,31,30.12,10.0,Calm,Calm,-,N/A,,Overcast,0,2013-02-03 19:56:00
12:56 PM,63.0,31.1,30,30.07,10.0,Calm,Calm,-,N/A,,Clear,0,2013-02-03 20:56:00
1:56 PM,66.9,31.1,26,30.04,10.0,Calm,Calm,-,N/A,,Clear,0,2013-02-03 21:56:00
2:56 PM,66.9,30.0,25,30.04,10.0,NE,5.8,-,N/A,,Clear,50,2013-02-03 22:56:00
3:56 PM,65.8,30.0,26,30.04,10.0,Calm,Calm,-,N/A,,Clear,0,2013-02-03 23:56:00
4:56 PM,64.9,30.0,27,30.04,10.0,Calm,Calm,-,N/A,,Clear,0,2013-02-04 00:56:00
5:56 PM,57.9,32.9,39,30.06,10.0,Calm,Calm,-,N/A,,Clear,0,2013-02-04 01:56:00
6:56 PM,55.9,32.0,40,30.06,10.0,South,6.9,-,N/A,,Clear,170,2013-02-04 02:56:00
7:56 PM,52.0,32.9,48,30.07,10.0,South,10.4,-,N/A,,Clear,190,2013-02-04 03:56:00
8:56 PM,50.9,32.0,48,30.08,10.0,South,6.9,-,N/A,,Clear,180,2013-02-04 04:56:00
9:56 PM,50.0,32.0,50,30.08,10.0,South,8.1,-,N/A,,Clear,170,2013-02-04 05:56:00
10:56 PM,47.8,32.0,54,30.09,10.0,SSW,8.1,-,N/A,,Clear,200,2013-02-04 06:56:00
11:56 PM,48.9,34.0,56,30.10,10.0,SSW,9.2,-,N/A,,Clear,210,2013-02-04 07:56:00